Cecil Field, FL

5:06 PM EDT on June 22, 2017 (GMT -0400)
Cecil

Weather History for KVQQ - August, 2013

Change the Weather History Date:

Friday, August 23, 2013

  Actual Average (KNIP) Record (KNIP)
Temperature  
Mean Temperature 78 °F -  
Max Temperature 86 °F 88 °F 100 °F (2014)
Min Temperature 71 °F 73 °F 46 °F (2005)
Cooling Degree Days 14    
Growing Degree Days 28 (Base 50)    
Moisture  
Dew Point 73 °F    
Average Humidity 98    
Maximum Humidity 100    
Minimum Humidity 70    
Precipitation  
Precipitation 0.00 in - - ()
Sea Level Pressure  
Sea Level Pressure 30.04 in    
Wind  
Wind Speed 1 mph (ESE)    
Max Wind Speed 12 mph    
Max Gust Speed -    
Visibility 8 miles    
Events Rain    
Averages and records for this station are not official NWS values.
T = Trace of Precipitation, MM = Missing Value Source: NWS Daily Summary

Daily Weather History Graph

Daily Weather History Graph

Search for Another Location

Airport or City:

Trip Planner

Search our weather history database for the weather conditions in past years. The results will help you decide how hot, cold, wet, or windy it might be!

Date:

Astronomy

Aug. 23, 2013 Rise Set
Actual Time 6:59 AM EDT 8:00 PM EDT
Civil Twilight 6:34 AM EDT 8:24 PM EDT
Nautical Twilight 6:05 AM EDT 8:54 PM EDT
Astronomical Twilight 5:35 AM EDT 9:24 PM EDT
Moon 9:37 PM EDT (8/23) 9:36 AM EDT (8/23)
Length of Visible Light 13h 50m
Length of Day
13h 00m
Waning Gibbous, 91% of the Moon is Illuminated
Aug 23
Waning Gibbous
Aug 28
Last Quarter
Sep 5
New
Sep 12
First Quarter
Sep 19
Full

Hourly Weather History & Observations

Time (EDT) Temp. Heat Index Dew Point Humidity Pressure Visibility Wind Dir Wind Speed Gust Speed Precip Events Conditions
12:15 AM 71.6 °F - 71.6 °F 100% 30.07 in 9.0 mi Calm Calm - N/A   Clear
12:35 AM 71.6 °F - 71.6 °F 100% 30.06 in 5.0 mi Calm Calm - N/A   Clear
12:55 AM 71.6 °F - 71.6 °F 100% 30.06 in 5.0 mi Calm Calm - N/A   Clear
1:15 AM 71.6 °F - 71.6 °F 100% 30.06 in 5.0 mi Calm Calm - N/A   Clear
1:35 AM 71.6 °F - 71.6 °F 100% 30.05 in 2.5 mi Calm Calm - N/A   Clear
1:55 AM 71.6 °F - 71.6 °F 100% 30.06 in 7.0 mi Calm Calm - N/A   Clear
2:15 AM 71.6 °F - 71.6 °F 100% 30.05 in 5.0 mi Calm Calm - N/A   Clear
2:35 AM 71.6 °F - 71.6 °F 100% 30.04 in 7.0 mi Calm Calm - N/A   Clear
2:55 AM 71.6 °F - 71.6 °F 100% 30.03 in 6.0 mi Calm Calm - N/A   Clear
3:15 AM 71.6 °F - 71.6 °F 100% 30.03 in 8.0 mi Calm Calm - N/A   Clear
3:35 AM 71.6 °F - 71.6 °F 100% 30.03 in 8.0 mi Calm Calm - N/A   Partly Cloudy
3:55 AM 71.6 °F - 71.6 °F 100% 30.02 in 7.0 mi Calm Calm - N/A   Partly Cloudy
4:15 AM 71.6 °F - 71.6 °F 100% 30.02 in 7.0 mi Calm Calm - N/A   Mostly Cloudy
4:35 AM 73.4 °F - 73.4 °F 100% 30.01 in 7.0 mi Calm Calm - N/A   Mostly Cloudy
4:55 AM 73.4 °F - 73.4 °F 100% 30.01 in 7.0 mi Calm Calm - N/A   Scattered Clouds
5:15 AM 71.6 °F - 71.6 °F 100% 30.02 in 5.0 mi Calm Calm - N/A   Scattered Clouds
5:35 AM 73.4 °F - 73.4 °F 100% 30.02 in 8.0 mi Calm Calm - N/A   Mostly Cloudy
5:55 AM 73.4 °F - 73.4 °F 100% 30.02 in 8.0 mi Calm Calm - N/A   Mostly Cloudy
6:15 AM 71.6 °F - 71.6 °F 100% 30.02 in 7.0 mi Calm Calm - N/A   Partly Cloudy
6:35 AM 71.6 °F - 71.6 °F 100% 30.02 in 5.0 mi Calm Calm - N/A   Clear
6:50 AM 71.6 °F - 71.6 °F 100% 30.02 in 7.0 mi Variable 4.6 mph - N/A   Scattered Clouds
7:50 AM 73.4 °F - 73.4 °F 100% 30.04 in 10.0 mi Calm Calm - N/A   Mostly Cloudy
8:50 AM 75.2 °F - 75.2 °F 100% 30.05 in 10.0 mi Calm Calm - N/A   Mostly Cloudy
9:50 AM 77.0 °F - 77.0 °F 100% 30.05 in 10.0 mi Calm Calm - N/A   Scattered Clouds
10:50 AM 77.0 °F - 77.0 °F 100% 30.07 in 10.0 mi Calm Calm - N/A   Scattered Clouds
11:50 AM 82.4 °F 90.9 °F 77.0 °F 84% 30.06 in 10.0 mi Variable 5.8 mph - N/A   Mostly Cloudy
12:50 PM 86.0 °F 96.9 °F 77.0 °F 74% 30.04 in 10.0 mi Variable 5.8 mph - N/A   Mostly Cloudy
1:50 PM 86.0 °F 95.1 °F 75.2 °F 70% 30.02 in 10.0 mi East 11.5 mph - N/A   Scattered Clouds
2:50 PM 80.6 °F 86.2 °F 75.2 °F 84% 30.02 in 7.0 mi ESE 11.5 mph - N/A   Scattered Clouds
3:50 PM 77.0 °F - 75.2 °F 94% 30.04 in 7.0 mi Variable 4.6 mph - N/A Rain Light Rain
4:50 PM 75.2 °F - 75.2 °F 100% 30.05 in 5.0 mi Variable 4.6 mph - N/A Rain Light Rain
5:50 PM 75.2 °F - 75.2 °F 100% 30.05 in 4.0 mi Variable 4.6 mph - N/A Rain Light Rain
6:50 PM 73.4 °F - 73.4 °F 100% 30.04 in 5.0 mi Calm Calm - N/A Rain Light Rain
7:50 PM 73.4 °F - 73.4 °F 100% 30.04 in 7.0 mi Calm Calm - N/A Rain Light Rain
8:15 PM 73.4 °F - 73.4 °F 100% 30.04 in 8.0 mi Calm Calm - N/A Rain Light Rain
8:35 PM 73.4 °F - 73.4 °F 100% 30.04 in 8.0 mi Calm Calm - N/A Rain Light Rain
8:55 PM 73.4 °F - 73.4 °F 100% 30.04 in 10.0 mi Calm Calm - N/A Rain Light Rain
9:15 PM 73.4 °F - 73.4 °F 100% 30.03 in 9.0 mi Calm Calm - N/A   Clear
9:35 PM 73.4 °F - 73.4 °F 100% 30.03 in 10.0 mi Calm Calm - N/A   Clear
9:55 PM 73.4 °F - 73.4 °F 100% 30.04 in 10.0 mi Calm Calm - N/A   Clear
10:15 PM 73.4 °F - 73.4 °F 100% 30.04 in 9.0 mi Calm Calm - N/A   Clear
10:35 PM 73.4 °F - 73.4 °F 100% 30.03 in 8.0 mi Calm Calm - N/A   Clear
10:55 PM 73.4 °F - 73.4 °F 100% 30.04 in 6.0 mi Calm Calm - N/A   Clear
11:15 PM 73.4 °F - 73.4 °F 100% 30.05 in 7.0 mi Calm Calm - N/A   Clear
11:35 PM 73.4 °F - 73.4 °F 100% 30.05 in 8.0 mi Calm Calm - N/A   Clear
11:55 PM 73.4 °F - 73.4 °F 100% 30.06 in 10.0 mi Calm Calm - N/A   Clear